Home   Weather   Richmond Hill   Past weeks
Flag for Canada

Past Weather in Richmond Hill, Ontario, Canada — Yesterday and Last 2 Weeks

Now
45 °F

Clear.


Feels Like: 41 °F
Forecast: 56 / 36 °F
Wind: 6 mph from Northwest

Location: Toronto Island Airport

Current Time: Oct 15, 2019 at 9:56:48 am

Latest Report: Oct 15, 2019 at 6:00 am


Visibility: 9 mi

Pressure: 30.12 "Hg

Humidity: 71%

Dew Point: 36 °F

Location of Richmond HillLocation

Past Weather in Richmond Hill — Graph

°F

Richmond Hill Temperature Yesterday

Maximum temperature yesterday: 54 °F (at 12:00 pm)
Minimum temperature yesterday: 48 °F (at 5:59 am)
Average temperature yesterday: 50 °F

High & Low Weather Summary for the Past Weeks

 TemperatureHumidityPressure
High75 °F (Oct 1, 12:00 pm)100% (Oct 1, 2:00 am)30.43 "Hg (Oct 1, 2:00 am)
Low45 °F (Oct 13, 4:00 am)41% (Oct 14, 3:00 pm)29.79 "Hg (Oct 13, 9:00 pm)
Average57 °F77%30.08 "Hg
* Reported Sep 30 6:00 am — Oct 15 6:00 am, Richmond Hill. Weather by CustomWeather, © 2019

Note: Actual official high and low records may vary slightly from our data, if they occured in-between our weather recording intervals... More about our weather records

Advertising

Richmond Hill Weather History for the Previous 24 Hours

Scroll right to see more
 ConditionsComfort  
Time TempWeatherWind HumidityBarometerVisibility
6:00 am
Tue, Oct 15
45 °FClear.6 mph71%30.12 "Hg9 mi
5:00 am46 °FClear.6 mph66%30.12 "Hg9 mi
4:00 am46 °FClear.9 mph66%30.11 "Hg9 mi
3:00 am48 °FClear.13 mph62%30.11 "Hg9 mi
2:00 am48 °FPassing clouds.6 mph62%30.10 "Hg9 mi
1:00 am50 °FOvercast.13 mph58%30.10 "Hg9 mi
12:00 am50 °FOvercast.10 mph58%30.09 "Hg9 mi
11:00 pm
Mon, Oct 14
50 °FOvercast.10 mph54%30.09 "Hg9 mi
10:00 pm48 °FOvercast.8 mph58%30.08 "Hg9 mi
9:00 pm48 °FClear.9 mph54%30.07 "Hg9 mi
8:00 pm50 °FClear.10 mph50%30.06 "Hg9 mi
7:00 pm50 °FClear.15 mph47%30.04 "Hg9 mi
6:00 pm52 °FPassing clouds.14 mph44%30.02 "Hg9 mi
5:00 pm54 °FPassing clouds.20 mph41%30.00 "Hg9 mi
4:00 pm52 °FPassing clouds.18 mph41%29.99 "Hg9 mi
3:00 pm54 °FScattered clouds.18 mph41%29.97 "Hg9 mi
2:00 pm54 °FScattered clouds.23 mph44%29.96 "Hg9 mi
1:00 pm54 °FPartly sunny.23 mph44%29.97 "Hg9 mi
12:00 pm54 °FPassing clouds.21 mph44%29.96 "Hg9 mi
11:00 am50 °FPartly sunny.15 mph54%29.96 "Hg9 mi
10:00 am48 °FOvercast.17 mph58%29.96 "Hg9 mi
9:00 am48 °FMostly cloudy.16 mph62%29.94 "Hg9 mi
Weather by CustomWeather, © 2019

See weather overview